Weather in Tutaev

Russia / Yaroslavl Oblast     57°52′07″N   39°31′50″E
temp.,
°C
wind,
m/s
gust,
m/s
humid.,
%
clouds,
%
prec.,
mm/h
press.,
hPa
HPBL,
m
15 april, thu
thu1500:00+11nnw238297 0.0 101840
03:00+9n379627 0.0 1019183
06:00+9nne4790100 0.0 1019411
09:00+10nne4786100 0.0 1020548
12:00+11ne5778100 0.0 1021735
15:00+11ne6871100 0.0 1022889
18:00+9ne51075100 0.0 1023826
21:00+7ene51382100 0.0 1024645
16 april, fri
fri1600:00+6ene6138198 0.0 1025608
03:00+5ene51382100 0.0 1025589
06:00+4ene51284100 0.0 1026511
09:00+6ene5106995 0.0 1027572
12:00+10ene685662 0.0 1027905
15:00+12ene684811 0.0 10271210
18:00+11ene594434 0.0 1027963
21:00+7ene5125848 0.0 1028486
17 april, sat
sat1700:00+5ene412685 0.0 1029411
03:00+3ene4127520 0.0 1030359
06:00+3ene412775 0.0 1030356
09:00+7e510555 0.0 1030615
12:00+11e58405 0.0 10301168
15:00+12ene57375 0.0 10291383
18:00+11ene48455 0.0 1028795
21:00+7ne411640 0.0 1029262
18 april, sun
sun1800:00+5ne410730 0.0 1029252
03:00+3ne310800 0.0 1029233
06:00+3ene3108136 0.0 1030265
09:00+7ene4862100 0.0 1030557
12:00+10ene5745100 0.0 10291274
15:00+12ene5741100 0.0 10291491
18:00+11ene4851100 0.0 1029607
21:00+7ne31168100 0.0 1029284
19 april, mon
mon1900:00+6e41178100 0.0 1030481
03:00+4ene3885100 0.0 1031308
06:00+3ene3883100 0.0 1032334
09:00+6e5753100 0.0 1032717
12:00+8e5639100 0.0 10321307
15:00+9e463799 0.0 10311551
18:00+8e3643100 0.0 1031807
21:00+4ese2258100 0.0 103132